Location: Byhalia Creek
(34.8270°N, 89.8040°W)
Time: 17:13:38
(UTC+00:00)

SL-16 R/B - Pass Details

Date: 22 April 2026
Orbit: 839 x 849 km, 71.0° (Epoch: 9 May)

Event Time Altitude Azimuth Distance (km) Brightness Sun altitude
Rises 02:06:59 0° 197° (SSW) 3,377 5.2 -18.0°
Reaches altitude 10° 02:09:24 10° 197° (SSW) 2,447 4.5 -18.4°
Maximum altitude 02:15:01 83° 109° (ESE) 852 2.1 -19.4°
Drops below altitude 10° 02:20:42 10° 23° (NNE) 2,468 4.7 -20.4°
Sets 02:23:09 0° 23° (NNE) 3,408 5.5 -20.8°
